Regional Weather Roundup
Issued by NWS

Home | Current Version | Previous Version | Text Only | Print | Product List | Glossary Off
Versions: 1 2 3 4 5 6 7 8 9 10 11 12 13 14 15 16 17 18 19 20 21 22 23 24 25 26 27 28 29 30 31 32 33 34 35 36 37 38 39 40 41 42 43 44 45 46 47 48 49 50

000
ASUS43 KFSD 190202
RWRSD

WEATHER ROUNDUP FOR SOUTH DAKOTA
NATIONAL WEATHER SERVICE SIOUX FALLS SD
900 PM CDT FRI APR 18 2014

NOTE: "FAIR" INDICATES FEW OR NO CLOUDS BELOW 12,000 FEET WITH NO
SIGNIFICANT WEATHER AND/OR OBSTRUCTIONS TO VISIBILITY.


SDZ001>005-009-010-012>017-190300-
NORTHWEST AND NORTH CENTRAL SOUTH DAKOTA

CITY           SKY/WX    TMP DP  RH WIND       PRES   REMARKS
FAITH            N/A     63  39  41 SW9       29.56R
MOBRIDGE       CLOUDY    64  39  39 S24       29.54S
$$

SDZ012>016-024>037-041>051-057-063-072>074-190300-
SOUTHWEST AND SOUTH CENTRAL SOUTH DAKOTA

CITY           SKY/WX    TMP DP  RH WIND       PRES   REMARKS
RAPID CTY ARPT CLOUDY    68  35  29 NW13      29.62R
PIERRE         CLOUDY    66  40  38 SE12      29.62S
CUSTER         CLOUDY    62  32  32 W8        29.78R
ELLSWORTH AFB  CLOUDY    66  41  39 N24G30    29.64R
PHILIP         MOCLDY    71  38  29 S18       29.59R
PINE RIDGE     CLOUDY    71  36  27 S18G33    29.65S
WINNER         FAIR      69  41  36 S29G38    29.72S
$$

SDZ004>011-016>023-039-040-190300-
NORTHEAST SOUTH DAKOTA

CITY           SKY/WX    TMP DP  RH WIND       PRES   REMARKS
ABERDEEN       MOCLDY    56  38  50 SE20G26   29.76F
WATERTOWN      MOCLDY    55  38  52 SE16G26   29.90R
$$

SDZ017-020-022-023-036>040-048>070-190300-
SOUTHEAST SOUTH DAKOTA

CITY           SKY/WX    TMP DP  RH WIND       PRES   REMARKS
SIOUX FALLS    CLOUDY    60  37  42 S23G32    29.94F
HURON          CLOUDY    64  40  41 S17G25    29.78S
CHAMBERLAIN      N/A     68  41  37 S25G36    29.73R
MITCHELL       CLOUDY    64  41  42 S23G32    29.83F
YANKTON        CLOUDY    64  39  39 S23G30    29.93S
$$

ABBREVIATIONS USED IN REMARKS
   TC - TEMPERATURE IN CELSIUS
  WCI - WIND CHILL INDEX
   HX - HEAT INDEX
  VSB - VISIBILITY




USA.gov is the U.S. government's official web portal to all federal, state and local government web resources and services.